SJX712 VVTS-RCTP

Flight info

Callsign SJX712
Flight time N/A
Altitude 41000
Route PATMA5F PATMA W12 PCA G221 BUNTA A1 IKELA/N0486F410 DCT MORTU DCT NOBAD DCT KAPLI G86 ANDRE A577 TNN TNN1A
Aircraft A359/H-SDE2E3GHIJ1J3J4J5LM1ORWXYZ/LB1D1

Departure

Time 2026-05-08 07:02
Airport Tan Son Nhat International Airport (VVTS)

Arrival

Time N/A
Airport Taiwan Taoyuan International Airport (RCTP)
Time Latitude Longitude Altitude Speed Heading
2026-05-08 06:38 10.81239 106.65231 44 ft 0 kts 159°
2026-05-08 06:45 10.81242 106.65230 71 ft 2 kts 159°
2026-05-08 06:46 10.81259 106.65224 44 ft 2 kts 159°
2026-05-08 06:46 10.81274 106.65217 38 ft 3 kts 143°
2026-05-08 06:46 10.81285 106.65205 39 ft 3 kts 95°
2026-05-08 06:46 10.81282 106.65186 39 ft 3 kts 70°
2026-05-08 06:47 10.81278 106.65173 41 ft 0 kts 74°
2026-05-08 06:52 10.81286 106.65201 39 ft 6 kts 73°
2026-05-08 06:52 10.81302 106.65247 41 ft 8 kts 69°
2026-05-08 06:52 10.81325 106.65308 43 ft 10 kts 69°
2026-05-08 06:52 10.81353 106.65383 43 ft 12 kts 69°
2026-05-08 06:53 10.81387 106.65473 43 ft 15 kts 69°
2026-05-08 06:53 10.81421 106.65564 43 ft 13 kts 69°
2026-05-08 06:53 10.81454 106.65654 43 ft 13 kts 68°
2026-05-08 06:53 10.81489 106.65746 43 ft 13 kts 69°
2026-05-08 06:54 10.81540 106.65794 43 ft 11 kts
2026-05-08 06:54 10.81623 106.65800 43 ft 13 kts
2026-05-08 06:54 10.81670 106.65868 43 ft 13 kts 69°
2026-05-08 06:54 10.81704 106.65961 43 ft 15 kts 68°
2026-05-08 06:55 10.81744 106.66063 43 ft 16 kts 67°
2026-05-08 06:55 10.81784 106.66175 43 ft 18 kts 69°
2026-05-08 06:55 10.81832 106.66298 43 ft 20 kts 69°
2026-05-08 06:55 10.81883 106.66435 43 ft 22 kts 69°
2026-05-08 06:56 10.81940 106.66583 43 ft 23 kts 68°
2026-05-08 06:56 10.81989 106.66714 43 ft 17 kts 69°
2026-05-08 06:56 10.82028 106.66816 42 ft 15 kts 68°
2026-05-08 06:56 10.82076 106.66900 42 ft 12 kts 46°
2026-05-08 06:57 10.82132 106.66947 40 ft 6 kts 39°
2026-05-08 06:57 10.82138 106.66952 41 ft 0 kts 39°
2026-05-08 06:58 10.82157 106.66968 41 ft 6 kts 39°
2026-05-08 06:58 10.82188 106.66994 42 ft 6 kts 41°
2026-05-08 06:59 10.82201 106.67005 42 ft 0 kts 39°
2026-05-08 07:00 10.82202 106.67006 42 ft 2 kts 39°
2026-05-08 07:00 10.82253 106.67014 42 ft 10 kts 345°
2026-05-08 07:00 10.82319 106.66967 41 ft 12 kts 311°
2026-05-08 07:00 10.82356 106.66916 41 ft 8 kts 269°
2026-05-08 07:01 10.82331 106.66846 38 ft 18 kts 248°
2026-05-08 07:01 10.82206 106.66515 40 ft 87 kts 249°
2026-05-08 07:01 10.81903 106.65716 45 ft 152 kts 249°
2026-05-08 07:01 10.81458 106.64545 240 ft 192 kts 250°
2026-05-08 07:02 10.80962 106.63280 992 ft 194 kts 248°
2026-05-08 07:02 10.80614 106.62434 1504 ft 198 kts 248°
2026-05-08 07:02 10.80041 106.61092 1900 ft 218 kts 247°
2026-05-08 07:02 10.79176 106.59074 2308 ft 249 kts 247°
2026-05-08 07:03 10.78694 106.57973 2551 ft 265 kts 246°
2026-05-08 07:03 10.77882 106.56181 2844 ft 294 kts 245°
2026-05-08 07:03 10.76931 106.54208 3016 ft 328 kts 243°
2026-05-08 07:03 10.75796 106.52058 2970 ft 360 kts 240°
2026-05-08 07:04 10.74421 106.49988 3050 ft 338 kts 224°
2026-05-08 07:04 10.72597 106.48792 3577 ft 293 kts 198°
2026-05-08 07:04 10.70694 106.48582 3971 ft 267 kts 170°
2026-05-08 07:04 10.68968 106.49293 4303 ft 276 kts 141°
2026-05-08 07:05 10.67777 106.50738 4630 ft 267 kts 113°
2026-05-08 07:05 10.67412 106.52580 4923 ft 271 kts 85°
2026-05-08 07:05 10.67930 106.54391 5386 ft 264 kts 63°
2026-05-08 07:05 10.68834 106.56006 5863 ft 263 kts 57°
2026-05-08 07:06 10.69860 106.57581 6276 ft 277 kts 56°
2026-05-08 07:06 10.70960 106.59206 6480 ft 279 kts 56°
2026-05-08 07:06 10.72060 106.60843 6545 ft 281 kts 56°
2026-05-08 07:06 10.73039 106.62533 6643 ft 273 kts 64°
2026-05-08 07:07 10.73766 106.64297 6810 ft 270 kts 69°
2026-05-08 07:07 10.74413 106.66081 6989 ft 269 kts 70°
2026-05-08 07:07 10.75022 106.67885 7096 ft 271 kts 71°
2026-05-08 07:07 10.75617 106.69722 7112 ft 276 kts 71°
2026-05-08 07:08 10.76241 106.71588 7098 ft 279 kts 70°
2026-05-08 07:08 10.76900 106.73433 7044 ft 277 kts 69°
2026-05-08 07:08 10.77576 106.75262 6996 ft 276 kts 69°
2026-05-08 07:08 10.78255 106.77086 7133 ft 277 kts 69°
2026-05-08 07:09 10.78943 106.78928 7629 ft 280 kts 69°
2026-05-08 07:09 10.79634 106.80776 8240 ft 280 kts 69°
2026-05-08 07:09 10.80330 106.82637 8822 ft 282 kts 69°
2026-05-08 07:09 10.81028 106.84508 9415 ft 285 kts 69°
2026-05-08 07:10 10.81736 106.86400 9967 ft 288 kts 69°
2026-05-08 07:10 10.82466 106.88345 10242 ft 301 kts 69°
2026-05-08 07:10 10.83227 106.90375 10457 ft 314 kts 69°
2026-05-08 07:10 10.84020 106.92492 10665 ft 327 kts 69°
2026-05-08 07:11 10.84844 106.94694 10859 ft 339 kts 70°
2026-05-08 07:11 10.85695 106.96968 11051 ft 350 kts 70°
2026-05-08 07:11 10.86561 106.99279 11265 ft 358 kts 70°
2026-05-08 07:11 10.87452 107.01656 11635 ft 362 kts 70°
2026-05-08 07:12 10.88351 107.04057 12056 ft 364 kts 70°
2026-05-08 07:12 10.89462 107.06379 12437 ft 367 kts 57°
2026-05-08 07:12 10.91222 107.08262 12835 ft 371 kts 38°
2026-05-08 07:12 10.93390 107.09699 13206 ft 373 kts 32°
2026-05-08 07:13 10.95627 107.11053 13587 ft 376 kts 32°
2026-05-08 07:13 10.97881 107.12418 13902 ft 378 kts 32°
2026-05-08 07:13 11.00142 107.13797 14216 ft 380 kts 32°
2026-05-08 07:13 11.02414 107.15188 14544 ft 382 kts 33°
2026-05-08 07:14 11.04692 107.16590 14868 ft 384 kts 33°
2026-05-08 07:14 11.06982 107.17998 15189 ft 386 kts 33°
2026-05-08 07:14 11.09287 107.19415 15517 ft 388 kts 33°
2026-05-08 07:14 11.11602 107.20839 15842 ft 390 kts 33°
2026-05-08 07:15 11.13926 107.22270 16154 ft 392 kts 33°
2026-05-08 07:15 11.16291 107.23669 16470 ft 395 kts 30°
2026-05-08 07:15 11.18756 107.24920 16797 ft 397 kts 27°
2026-05-08 07:15 11.21257 107.26134 17117 ft 399 kts 27°
2026-05-08 07:16 11.23771 107.27353 17424 ft 401 kts 27°
2026-05-08 07:16 11.26299 107.28581 17730 ft 403 kts 28°
2026-05-08 07:16 11.28833 107.29814 18048 ft 405 kts 27°
2026-05-08 07:16 11.31384 107.31054 18319 ft 407 kts 28°
2026-05-08 07:17 11.33948 107.32301 18584 ft 409 kts 28°
2026-05-08 07:17 11.36520 107.33552 18847 ft 410 kts 28°
2026-05-08 07:17 11.39099 107.34809 19125 ft 412 kts 28°
2026-05-08 07:17 11.41693 107.36070 19386 ft 414 kts 27°
2026-05-08 07:18 11.44300 107.37338 19643 ft 416 kts 28°
2026-05-08 07:18 11.46914 107.38610 19898 ft 417 kts 27°
2026-05-08 07:18 11.49539 107.39888 20135 ft 419 kts 27°
2026-05-08 07:18 11.52171 107.41170 20424 ft 420 kts 28°
2026-05-08 07:19 11.54814 107.42459 20676 ft 422 kts 28°
2026-05-08 07:19 11.57468 107.43754 20925 ft 424 kts 28°
2026-05-08 07:19 11.60134 107.45054 21174 ft 425 kts 27°
2026-05-08 07:19 11.62810 107.46360 21384 ft 427 kts 28°
2026-05-08 07:20 11.65497 107.47671 21657 ft 429 kts 28°
2026-05-08 07:20 11.68194 107.48988 21904 ft 431 kts 28°
2026-05-08 07:20 11.70905 107.50312 22133 ft 432 kts 27°
2026-05-08 07:20 11.73624 107.51639 22381 ft 434 kts 28°
2026-05-08 07:21 11.76351 107.52971 22605 ft 436 kts 27°
2026-05-08 07:21 11.79091 107.54308 22839 ft 437 kts 27°
2026-05-08 07:21 11.81842 107.55652 23060 ft 439 kts 27°
2026-05-08 07:21 11.84604 107.57003 23277 ft 441 kts 28°
2026-05-08 07:22 11.87377 107.58359 23463 ft 443 kts 27°
2026-05-08 07:22 11.90162 107.59721 23627 ft 445 kts 27°
2026-05-08 07:22 11.92961 107.61089 23840 ft 446 kts 27°
2026-05-08 07:22 11.95763 107.62460 24041 ft 447 kts 27°
2026-05-08 07:23 11.98571 107.63834 24239 ft 448 kts 27°
2026-05-08 07:23 12.01385 107.65210 24426 ft 449 kts 27°
2026-05-08 07:23 12.04207 107.66591 24637 ft 450 kts 27°
2026-05-08 07:23 12.07038 107.67976 24834 ft 451 kts 27°
2026-05-08 07:24 12.09836 107.69347 25019 ft 453 kts 27°
2026-05-08 07:24 12.12718 107.70758 25219 ft 454 kts 27°
2026-05-08 07:24 12.15529 107.72136 25412 ft 455 kts 27°
2026-05-08 07:24 12.18384 107.73536 25622 ft 456 kts 27°
2026-05-08 07:25 12.21249 107.74941 25820 ft 457 kts 27°
2026-05-08 07:25 12.24115 107.76346 26060 ft 457 kts 27°
2026-05-08 07:25 12.29856 107.79163 26486 ft 460 kts 27°
2026-05-08 07:26 12.32691 107.80675 26708 ft 459 kts 32°
2026-05-08 07:26 12.35278 107.82583 26939 ft 459 kts 40°
2026-05-08 07:26 12.37698 107.84725 27089 ft 461 kts 43°
2026-05-08 07:26 12.40060 107.86945 27356 ft 461 kts 44°
2026-05-08 07:27 12.42405 107.89203 27536 ft 464 kts 44°
2026-05-08 07:27 12.44747 107.91468 27796 ft 464 kts 44°
2026-05-08 07:27 12.47102 107.93737 27933 ft 467 kts 43°
2026-05-08 07:27 12.49478 107.96011 28204 ft 467 kts 43°
2026-05-08 07:28 12.51861 107.98281 28381 ft 470 kts 43°
2026-05-08 07:28 12.54260 108.00558 28630 ft 470 kts 43°
2026-05-08 07:28 12.56657 108.02831 28880 ft 471 kts 43°
2026-05-08 07:28 12.59066 108.05115 29058 ft 473 kts 43°
2026-05-08 07:29 12.61476 108.07405 29329 ft 473 kts 43°
2026-05-08 07:29 12.63900 108.09710 29471 ft 477 kts 43°
2026-05-08 07:29 12.66375 108.11962 29727 ft 476 kts 38°
2026-05-08 07:29 12.69039 108.13995 29886 ft 479 kts 36°
2026-05-08 07:30 12.71751 108.15972 30184 ft 478 kts 35°
2026-05-08 07:30 12.74479 108.17920 30365 ft 480 kts 34°
2026-05-08 07:30 12.77228 108.19862 30589 ft 480 kts 34°
2026-05-08 07:30 12.79981 108.21802 30782 ft 482 kts 34°
2026-05-08 07:31 12.82748 108.23754 30960 ft 483 kts 34°
2026-05-08 07:31 12.85477 108.25682 31168 ft 484 kts 34°
2026-05-08 07:31 12.88255 108.27650 31321 ft 487 kts 34°
2026-05-08 07:31 12.91041 108.29629 31522 ft 487 kts 34°
2026-05-08 07:32 12.93827 108.31611 31694 ft 489 kts 34°
2026-05-08 07:32 12.96625 108.33602 31885 ft 490 kts 34°
2026-05-08 07:32 12.99424 108.35594 32064 ft 491 kts 34°
2026-05-08 07:32 13.02232 108.37591 32248 ft 491 kts 34°
2026-05-08 07:33 13.05082 108.39618 32424 ft 492 kts 34°
2026-05-08 07:33 13.07857 108.41591 32600 ft 493 kts 34°
2026-05-08 07:33 13.10679 108.43598 32781 ft 494 kts 34°
2026-05-08 07:33 13.13495 108.45602 33086 ft 491 kts 34°
2026-05-08 07:34 13.16292 108.47593 33430 ft 488 kts 34°
2026-05-08 07:34 13.19083 108.49580 33615 ft 490 kts 34°
2026-05-08 07:34 13.21886 108.51576 33804 ft 490 kts 34°
2026-05-08 07:34 13.24686 108.53570 34045 ft 489 kts 34°
2026-05-08 07:35 13.27478 108.55557 34308 ft 488 kts 34°
2026-05-08 07:35 13.30262 108.57539 34574 ft 487 kts 34°
2026-05-08 07:35 13.33040 108.59522 34836 ft 486 kts 34°
2026-05-08 07:35 13.35814 108.61500 35107 ft 485 kts 34°
2026-05-08 07:36 13.38582 108.63470 35401 ft 484 kts 34°
2026-05-08 07:36 13.41348 108.65436 35684 ft 483 kts 34°
2026-05-08 07:36 13.44106 108.67399 35975 ft 482 kts 34°
2026-05-08 07:36 13.46856 108.69358 36241 ft 481 kts 34°
2026-05-08 07:37 13.49603 108.71317 36540 ft 480 kts 34°
2026-05-08 07:37 13.52344 108.73272 36794 ft 480 kts 34°
2026-05-08 07:37 13.55085 108.75226 37097 ft 479 kts 34°
2026-05-08 07:37 13.57816 108.77172 37409 ft 477 kts 34°
2026-05-08 07:38 13.60540 108.79113 37759 ft 475 kts 34°
2026-05-08 07:38 13.63245 108.81043 38134 ft 472 kts 34°
2026-05-08 07:38 13.65941 108.82969 38433 ft 471 kts 34°
2026-05-08 07:38 13.68629 108.84890 38697 ft 470 kts 34°
2026-05-08 07:39 13.71314 108.86809 38902 ft 470 kts 34°
2026-05-08 07:39 13.74000 108.88729 39091 ft 470 kts 34°
2026-05-08 07:39 13.76688 108.90650 39292 ft 470 kts 34°
2026-05-08 07:39 13.79372 108.92569 39494 ft 470 kts 34°
2026-05-08 07:40 13.82054 108.94487 39684 ft 470 kts 34°
2026-05-08 07:40 13.84739 108.96409 39837 ft 470 kts 34°
2026-05-08 07:40 13.87428 108.98333 40025 ft 471 kts 34°
2026-05-08 07:40 13.90116 109.00257 40211 ft 470 kts 34°
2026-05-08 07:41 13.92870 109.02061 40374 ft 469 kts 28°
2026-05-08 07:41 13.95819 109.03502 40544 ft 468 kts 20°
2026-05-08 07:41 13.98879 109.04483 40699 ft 468 kts 12°
2026-05-08 07:41 14.02078 109.05071 40850 ft 467 kts
2026-05-08 07:42 14.05304 109.05526 40892 ft 467 kts
2026-05-08 07:42 14.11759 109.06289 40897 ft 467 kts
2026-05-08 07:43 14.18214 109.07028 40883 ft 467 kts
2026-05-08 07:43 14.24674 109.07796 40899 ft 467 kts
2026-05-08 07:44 14.31129 109.08580 40896 ft 467 kts
2026-05-08 07:44 14.37593 109.09367 40894 ft 467 kts
2026-05-08 07:45 14.44050 109.10154 40894 ft 467 kts
2026-05-08 07:45 14.50510 109.10947 40899 ft 467 kts
2026-05-08 07:46 14.56964 109.11740 40881 ft 467 kts
2026-05-08 07:46 14.63430 109.12528 40882 ft 468 kts
2026-05-08 07:47 14.69900 109.13310 40884 ft 468 kts
2026-05-08 07:47 14.76368 109.14093 40883 ft 468 kts
2026-05-08 07:48 14.82839 109.14881 40887 ft 468 kts
2026-05-08 07:48 14.88216 109.15537 40887 ft 468 kts
2026-05-08 07:49 14.94682 109.16327 40880 ft 468 kts
2026-05-08 07:49 15.02198 109.17247 40886 ft 468 kts
2026-05-08 07:50 15.07617 109.17912 40887 ft 468 kts
2026-05-08 07:50 15.15127 109.18834 40886 ft 468 kts
2026-05-08 07:51 15.20548 109.19501 40888 ft 468 kts
2026-05-08 07:51 15.27006 109.20295 40882 ft 468 kts
2026-05-08 07:52 15.33472 109.21089 40882 ft 468 kts
2026-05-08 07:52 15.39933 109.21882 40885 ft 468 kts
2026-05-08 07:53 15.46355 109.22672 40886 ft 468 kts
2026-05-08 07:53 15.52817 109.23469 40886 ft 468 kts
2026-05-08 07:54 15.59279 109.24269 40887 ft 468 kts
2026-05-08 07:54 15.65744 109.25067 40886 ft 468 kts
2026-05-08 07:55 15.72205 109.25857 40888 ft 468 kts
2026-05-08 07:55 15.78668 109.26648 40888 ft 468 kts
2026-05-08 07:56 15.85133 109.27440 40909 ft 468 kts
2026-05-08 07:56 15.91613 109.28234 40891 ft 469 kts
2026-05-08 07:57 15.98089 109.29025 40886 ft 469 kts
2026-05-08 07:57 16.04570 109.29817 40897 ft 469 kts
2026-05-08 07:58 16.11049 109.30612 40889 ft 469 kts
2026-05-08 07:58 16.17536 109.31409 40895 ft 469 kts
2026-05-08 07:59 16.24026 109.32202 40892 ft 470 kts
2026-05-08 07:59 16.30517 109.33005 40891 ft 470 kts
2026-05-08 08:00 16.37012 109.33810 40903 ft 470 kts
2026-05-08 08:00 16.43504 109.34612 40902 ft 470 kts
2026-05-08 08:01 16.50000 109.35414 40891 ft 470 kts
2026-05-08 08:01 16.56501 109.36220 40898 ft 471 kts
2026-05-08 08:02 16.63009 109.37027 40898 ft 471 kts
2026-05-08 08:02 16.69516 109.37832 40900 ft 471 kts
2026-05-08 08:03 16.76002 109.38806 40895 ft 472 kts 13°
2026-05-08 08:03 16.82060 109.41285 40897 ft 474 kts 29°
2026-05-08 08:04 16.87147 109.45680 40892 ft 480 kts 48°
2026-05-08 08:04 16.91100 109.51311 40893 ft 482 kts 54°
2026-05-08 08:05 16.94817 109.57140 40898 ft 482 kts 55°
2026-05-08 08:05 16.98526 109.62982 40898 ft 482 kts 54°
2026-05-08 08:06 17.02264 109.68802 40895 ft 482 kts 54°
2026-05-08 08:06 17.06016 109.74615 40897 ft 482 kts 54°
2026-05-08 08:07 17.09767 109.80428 40899 ft 482 kts 54°
2026-05-08 08:07 17.13514 109.86243 40894 ft 482 kts 54°
2026-05-08 08:08 17.17256 109.92062 40895 ft 482 kts 54°
2026-05-08 08:08 17.20996 109.97882 40895 ft 482 kts 54°
2026-05-08 08:09 17.24737 110.03706 40895 ft 482 kts 54°
2026-05-08 08:09 17.28478 110.09538 40897 ft 482 kts 54°
2026-05-08 08:10 17.32214 110.15366 40900 ft 482 kts 54°
2026-05-08 08:10 17.35937 110.21180 40896 ft 480 kts 54°
2026-05-08 08:11 17.39624 110.26944 40897 ft 480 kts 54°
2026-05-08 08:11 17.43348 110.32758 40898 ft 481 kts 54°
2026-05-08 08:12 17.47110 110.38550 40894 ft 481 kts 54°
2026-05-08 08:12 17.50880 110.44337 40894 ft 481 kts 54°
2026-05-08 08:13 17.54645 110.50130 40896 ft 480 kts 54°
2026-05-08 08:13 17.58398 110.55923 40896 ft 480 kts 54°
2026-05-08 08:14 17.62141 110.61711 40895 ft 480 kts 54°
2026-05-08 08:14 17.65885 110.67503 40898 ft 480 kts 54°
2026-05-08 08:15 17.69627 110.73293 40899 ft 480 kts 54°
2026-05-08 08:15 17.73369 110.79086 40900 ft 480 kts 54°
2026-05-08 08:16 17.77108 110.84883 40900 ft 480 kts 55°
2026-05-08 08:16 17.80848 110.90688 40897 ft 480 kts 55°
2026-05-08 08:17 17.84582 110.96491 40894 ft 480 kts 55°
2026-05-08 08:17 17.88316 111.02298 40896 ft 480 kts 55°
2026-05-08 08:18 17.92049 111.08106 40898 ft 480 kts 55°
2026-05-08 08:18 17.95782 111.13919 40898 ft 481 kts 54°
2026-05-08 08:19 17.99526 111.19756 40900 ft 482 kts 55°
2026-05-08 08:19 18.03241 111.25556 40899 ft 482 kts 55°
2026-05-08 08:20 18.07068 111.31531 40898 ft 482 kts 55°
2026-05-08 08:20 18.10722 111.37241 40900 ft 482 kts 55°
2026-05-08 08:21 18.14462 111.43088 40901 ft 482 kts 55°
2026-05-08 08:21 18.18203 111.48938 40900 ft 482 kts 55°
2026-05-08 08:22 18.21938 111.54787 40897 ft 483 kts 54°
2026-05-08 08:22 18.25682 111.60655 40901 ft 483 kts 54°
2026-05-08 08:23 18.29428 111.66533 40902 ft 483 kts 54°
2026-05-08 08:23 18.33167 111.72410 40901 ft 483 kts 54°
2026-05-08 08:24 18.36909 111.78295 40906 ft 483 kts 55°
2026-05-08 08:24 18.40647 111.84181 40903 ft 484 kts 55°
2026-05-08 08:25 18.44386 111.90076 40905 ft 484 kts 55°
2026-05-08 08:25 18.48100 111.95939 40906 ft 484 kts 54°
2026-05-08 08:26 18.51840 112.01849 40904 ft 485 kts 54°
2026-05-08 08:26 18.55583 112.07766 40901 ft 485 kts 54°
2026-05-08 08:27 18.59326 112.13684 40906 ft 485 kts 54°
2026-05-08 08:27 18.63069 112.19606 40906 ft 486 kts 55°
2026-05-08 08:28 18.66669 112.25635 40912 ft 487 kts 59°
2026-05-08 08:28 18.69885 112.31923 40906 ft 487 kts 60°
2026-05-08 08:29 18.73034 112.38251 40907 ft 487 kts 60°
2026-05-08 08:29 18.76175 112.44593 40906 ft 488 kts 60°
2026-05-08 08:30 18.79324 112.50937 40912 ft 489 kts 61°
2026-05-08 08:30 18.84056 112.60478 40907 ft 489 kts 61°
2026-05-08 08:31 18.87209 112.66844 40907 ft 489 kts 61°
2026-05-08 08:31 18.90358 112.73213 40908 ft 489 kts 61°
2026-05-08 08:32 18.93505 112.79583 40909 ft 489 kts 61°
2026-05-08 08:32 18.96651 112.85961 40908 ft 490 kts 61°
2026-05-08 08:33 18.99799 112.92339 40912 ft 490 kts 61°
2026-05-08 08:33 19.02951 112.98727 40912 ft 490 kts 61°
2026-05-08 08:34 19.06102 113.05115 40911 ft 490 kts 61°
2026-05-08 08:34 19.09252 113.11509 40912 ft 490 kts 61°
2026-05-08 08:35 19.12397 113.17903 40912 ft 490 kts 61°
2026-05-08 08:35 19.15519 113.24259 40912 ft 490 kts 61°
2026-05-08 08:36 19.18658 113.30660 40911 ft 490 kts 61°
2026-05-08 08:36 19.21815 113.37101 40911 ft 490 kts 61°
2026-05-08 08:37 19.24930 113.43466 40916 ft 491 kts 60°
2026-05-08 08:37 19.28069 113.49890 40912 ft 492 kts 60°
2026-05-08 08:38 19.31207 113.56321 40910 ft 492 kts 60°
2026-05-08 08:38 19.34343 113.62752 40912 ft 492 kts 60°
2026-05-08 08:39 19.36968 113.68143 40912 ft 492 kts 60°
2026-05-08 08:39 19.40083 113.74539 40912 ft 492 kts 60°
2026-05-08 08:40 19.43743 113.82066 40917 ft 492 kts 60°
2026-05-08 08:40 19.46342 113.87421 40917 ft 492 kts 60°
2026-05-08 08:41 19.49470 113.93872 40914 ft 493 kts 60°
2026-05-08 08:41 19.52603 114.00339 40914 ft 493 kts 60°
2026-05-08 08:42 19.55733 114.06810 40912 ft 493 kts 60°
2026-05-08 08:42 19.58863 114.13283 40912 ft 493 kts 60°
2026-05-08 08:43 19.61990 114.19759 40916 ft 493 kts 60°
2026-05-08 08:43 19.65113 114.26235 40914 ft 493 kts 60°
2026-05-08 08:44 19.68234 114.32714 40914 ft 493 kts 60°
2026-05-08 08:44 19.71351 114.39195 40917 ft 493 kts 60°
2026-05-08 08:45 19.74468 114.45690 40915 ft 495 kts 60°
2026-05-08 08:45 19.77595 114.52201 40913 ft 495 kts 60°
2026-05-08 08:46 19.80719 114.58716 40917 ft 495 kts 60°
2026-05-08 08:46 19.83839 114.65231 40918 ft 495 kts 60°
2026-05-08 08:47 19.86959 114.71753 40919 ft 495 kts 60°
2026-05-08 08:47 19.90074 114.78277 40919 ft 495 kts 60°
2026-05-08 08:48 19.93189 114.84807 40915 ft 495 kts 60°
2026-05-08 08:48 19.96300 114.91336 40923 ft 496 kts 60°
2026-05-08 08:49 19.99419 114.97892 40922 ft 497 kts 60°
2026-05-08 08:49 20.02539 115.04458 40921 ft 497 kts 60°
2026-05-08 08:50 20.05629 115.10977 40917 ft 497 kts 60°
2026-05-08 08:50 20.08739 115.17538 40919 ft 497 kts 60°
2026-05-08 08:51 20.11852 115.24102 40921 ft 497 kts 60°
2026-05-08 08:51 20.14963 115.30669 40922 ft 497 kts 60°
2026-05-08 08:52 20.18067 115.37232 40921 ft 495 kts 60°
2026-05-08 08:52 20.21154 115.43768 40921 ft 494 kts 60°
2026-05-08 08:53 20.24234 115.50296 40921 ft 494 kts 60°
2026-05-08 08:53 20.27319 115.56837 40921 ft 494 kts 60°
2026-05-08 08:54 20.30393 115.63371 40921 ft 494 kts 60°
2026-05-08 08:54 20.33466 115.69913 40924 ft 493 kts 60°
2026-05-08 08:55 20.36534 115.76451 40918 ft 493 kts 60°
2026-05-08 08:55 20.39601 115.82990 40921 ft 493 kts 60°
2026-05-08 08:56 20.42667 115.89534 40922 ft 494 kts 60°
2026-05-08 08:56 20.45729 115.96085 40922 ft 494 kts 60°
2026-05-08 08:57 20.48794 116.02648 40924 ft 494 kts 60°
2026-05-08 08:57 20.51853 116.09207 40921 ft 494 kts 60°
2026-05-08 08:58 20.54911 116.15770 40927 ft 494 kts 60°
2026-05-08 08:58 20.57966 116.22335 40916 ft 494 kts 60°
2026-05-08 08:59 20.61020 116.28907 40925 ft 494 kts 61°
2026-05-08 08:59 20.64069 116.35475 40928 ft 494 kts 60°
2026-05-08 09:00 20.67119 116.42057 40923 ft 495 kts 60°
2026-05-08 09:00 20.70168 116.48639 40926 ft 495 kts 60°
2026-05-08 09:01 20.73218 116.55227 40924 ft 495 kts 60°
2026-05-08 09:01 20.76261 116.61811 40919 ft 494 kts 61°
2026-05-08 09:02 20.79296 116.68391 40927 ft 493 kts 61°
2026-05-08 09:02 20.82325 116.74963 40933 ft 493 kts 61°
2026-05-08 09:03 20.85352 116.81542 40924 ft 493 kts 60°
2026-05-08 09:03 20.88390 116.88146 40924 ft 496 kts 60°
2026-05-08 09:04 20.91424 116.94750 40924 ft 495 kts 60°
2026-05-08 09:04 20.94456 117.01361 40928 ft 494 kts 61°
2026-05-08 09:05 20.97481 117.07967 40917 ft 494 kts 61°
2026-05-08 09:05 21.00484 117.14529 40930 ft 494 kts 61°
2026-05-08 09:06 21.03503 117.21136 40919 ft 494 kts 61°
2026-05-08 09:06 21.06521 117.27748 40925 ft 494 kts 61°
2026-05-08 09:07 21.09540 117.34368 40926 ft 496 kts 60°
2026-05-08 09:07 21.12565 117.41010 40934 ft 496 kts 61°
2026-05-08 09:08 21.15577 117.47659 40925 ft 497 kts 62°
2026-05-08 09:08 21.17781 117.54705 40925 ft 501 kts 71°
2026-05-08 09:09 21.19550 117.61927 40931 ft 501 kts 73°
2026-05-08 09:09 21.21244 117.69178 40930 ft 502 kts 73°
2026-05-08 09:10 21.22942 117.76428 40922 ft 501 kts 73°
2026-05-08 09:10 21.24651 117.83669 40923 ft 501 kts 73°
2026-05-08 09:11 21.26368 117.90922 40933 ft 502 kts 73°
2026-05-08 09:11 21.28085 117.98191 40933 ft 504 kts 73°
2026-05-08 09:12 21.29802 118.05475 40935 ft 504 kts 73°
2026-05-08 09:12 21.31511 118.12756 40931 ft 503 kts 73°
2026-05-08 09:13 21.33215 118.20031 40932 ft 503 kts 73°
2026-05-08 09:13 21.34919 118.27309 40933 ft 503 kts 73°
2026-05-08 09:14 21.36618 118.34584 40931 ft 503 kts 73°
2026-05-08 09:14 21.38314 118.41862 40926 ft 503 kts 73°
2026-05-08 09:15 21.40001 118.49138 40929 ft 502 kts 73°
2026-05-08 09:15 21.41690 118.56412 40928 ft 502 kts 73°
2026-05-08 09:16 21.43378 118.63694 40934 ft 503 kts 73°
2026-05-08 09:16 21.45055 118.70943 40933 ft 504 kts 73°
2026-05-08 09:17 21.46736 118.78241 40929 ft 504 kts 73°
2026-05-08 09:17 21.48417 118.85550 40931 ft 504 kts 73°
2026-05-08 09:18 21.50093 118.92853 40932 ft 504 kts 73°